Погода в Ломках

Россия / Костромская область     57°56′57″N   42°34′09″E
темп.,
°C
ветер,
м/с
пор.,
м/с
влажн.,
%
обл.,
%
осадки,
мм/ч
давл.,
гПа
погр.,
м
21 января, пт
пт2100:00−6ю51392100 0.2 1004705
03:00−8ю51393100 0.3 1004534
06:00−9ю51293100 0.1 1004500
09:00−9ююв41294100 0.6 1005556
12:00−8ююв41294100 0.6 1005541
15:00−8юв51294100 1.3 1005586
18:00−8юв51394100 0.9 1005725
21:00−8юв51291100 1.4 1006676
22 января, сб
сб2200:00−8юв41193100 0.2 1007596
03:00−8вюв41194100 0.4 1008547
06:00−8вюв4109499 0.7 1008612
09:00−9юв41094100 0.9 1011410
12:00−7юв41094100 0.1 1013451
15:00−7вюв499398 0.2 1015485
18:00−8вюв4995100 0.1 1018401
21:00−10в3896100 0.2 1020234
23 января, вс
вс2300:00−10в2696100 0.1 1021178
03:00−9в2696100 0.6 1022218
06:00−11в2596100 0.2 1024157
09:00−11в1397100 0.4 1026116
12:00−8вюв129394 0.2 1028184
15:00−8вюв119778 0.3 103011
18:00−16вюв11100100 0.0 10339
21:00−17в00100100 0.1 10359
24 января, пн
пн2400:00−19юв11100100 0.0 10379
03:00−19в11100100 0.1 10389
06:00−20в00100100 0.0 10389
09:00−20св11100100 0.1 103912
12:00−10ююв239585 0.0 1037130
15:00−10вюв119864 0.0 103610
18:00−17юв11100100 0.0 10369
21:00−10юв1297100 0.1 103564
25 января, вт
вт2500:00−10юв239888 0.1 103339
03:00−17ююв249958 0.1 103263
06:00−20ююв2210062 0.0 103032
09:00−19ююв2599100 0.0 102972
12:00−11ю3792100 0.0 1028207
15:00−9ююв3894100 0.0 1026298
18:00−12ююв3896100 0.0 1026168
21:00−12ю2997100 0.0 1026208